Regional Weather Roundup
Issued by NWS Albany, NY

Home | Current Version | Previous Version | Text Only | Print | Product List | Glossary On
Versions: 1 2 3 4 5 6 7 8 9 10 11 12 13 14 15 16 17 18 19 20 21 22 23 24 25 26 27
000
ASUS41 KALY 280910
RWRALY

NEW YORK STATE HOURLY WEATHER ROUNDUP
NATIONAL WEATHER SERVICE ALBANY NY
500 AM EDT THU JUL 28 2016

NOTE: "FAIR" INDICATES FEW OR NO CLOUDS BELOW 12,000 FEET WITH NO
SIGNIFICANT WEATHER AND/OR NO OBSTRUCTIONS TO VISIBILITY.

NYZ032-033-038>043-046>054-057>066-NYZ062>081-082-084-281000-
EAST


CITY           SKY/WX    TMP DP  RH WIND       PRES   REMARKS
ALBANY         PTCLDY    66  61  84 CALM      29.90S
GLENS FALLS    MOCLDY    64  61  90 CALM      29.89S
POUGHKEEPSIE   CLEAR     65  61  87 CALM      29.91S
NEWBURGH       CLEAR     66  63  88 CALM      29.94S
MONTGOMERY     CLEAR     63  62  97 SW3       29.92S
WHITE PLAINS   CLEAR     70  68  93 NW5       29.92R
ISLIP          CLOUDY    75  74  96 W5        29.90S
NEW YORK CITY  CLEAR     80  73  79 CALM      29.90R
CENTRAL PARK   CLEAR     78  71  79 CALM      29.93S
$$

NYZ005>009-017-018-044>046-055-056-281000-
CENTRAL


CITY           SKY/WX    TMP DP  RH WIND       PRES   REMARKS
FULTON         CLOUDY    70  66  87 CALM      29.90S
SYRACUSE       PTCLDY    70  63  78 CALM      29.90R
ROME           PTCLDY    65  63  93 SE3       29.91S
ELMIRA         PTCLDY    60  57  89 CALM      29.94S
BINGHAMTON     CLEAR     65  58  78 CALM      29.97S
MONTICELLO     CLEAR     61  57  88 CALM      29.98S
$$

NYZ026>034-041>043-087-281000-
NORTH


CITY           SKY/WX    TMP DP  RH WIND       PRES   REMARKS
WATERTOWN      CLOUDY    70  67  90 S3        29.88R
FORT DRUM      NOT AVBL
MASSENA        MOCLDY    68  63  84 CALM      29.87S
SARANAC LAKE   CLEAR     57  55  93 CALM      29.92S
PLATTSBURGH    CLOUDY    69  64  84 CALM      29.86S
$$

NYZ001>004-010>016-019>021-085-281000-
WEST


CITY           SKY/WX    TMP DP  RH WIND       PRES   REMARKS
NIAGARA FALLS  CLEAR     70  65  84 CALM      29.91S
BUFFALO        CLEAR     70  61  73 CALM      29.92R
DUNKIRK        PTCLDY    64  58  80 S3        29.92S
JAMESTOWN        N/A     61  57  88 S6        29.97S VSB 3/4
WELLSVILLE     CLEAR     63  59  87 CALM      30.01S
ROCHESTER      MOCLDY    67  63  87 SW5       29.91S
PENN YAN       CLEAR     67  63  87 SW3       29.94S
$$

             KEY
       WCI = WIND CHILL INDEX
       VSB = VISIBILITY
       HX  = HEAT INDEX
$$




USA.gov is the U.S. government's official web portal to all federal, state and local government web resources and services.